Regional Weather Roundup
Issued by NWS

Home | Current Version | Previous Version | Graphics & Text | Print | Product List | Glossary On
Versions: 1 2 3 4 5 6 7 8 9 10 11 12 13 14 15 16 17 18 19 20 21 22 23 24 25 26 27 28
000
ASUS45 KCYS 211110
RWRWY

WYOMING REGIONAL WEATHER ROUNDUP
NATIONAL WEATHER SERVICE CHEYENNE WY
400 AM MST TUE NOV 21 2017

NOTE:  "FAIR" INDICATES FEW OR NO CLOUDS BELOW 12,000 FEET
WITH NO SIGNIFICANT WEATHER AND/OR OBSTRUCTIONS TO VISIBILITY.

WYZ001-211200-
YELLOWSTONE NATIONAL PARK

CITY           SKY/WX    TMP DP  RH WIND       PRES   REMARKS
LK YELLOWSTONE   N/A     27  26  96 CALM      30.18R
W YELLOWSTONE  NOT AVBL

$$
WYZ002>013-054>058-071-098>099-211200-
NORTHERN WYOMING

CITY           SKY/WX    TMP DP  RH WIND       PRES   REMARKS
JACKSON        FLURRIES  38  33  82 SW15      30.14R WCI  29
CODY           MOCLDY    29  27  92 NE8       30.15R WCI  21
GREYBULL       CLOUDY    35  29  78 NW24G32   30.12R WCI  23
WORLAND        MOCLDY    33  28  81 W3        30.12R
SHERIDAN       CLOUDY    26  25  96 N3        30.21R
BUFFALO        CLOUDY    25  21  85 N9        30.17R WCI  15
GILLETTE       CLOUDY    24  22  91 N8        30.17R WCI  15
HULETT         CLOUDY    27  23  86 N6        30.17R WCI  20
NEWCASTLE      FAIR      30  19  64 NW14G22   30.11R WCI  20

$$
WYZ014>020-022>026-101>103-211200-
CENTRAL WYOMING

CITY           SKY/WX    TMP DP  RH WIND       PRES   REMARKS
BIG PINEY      CLOUDY    30  29  96 NE5       30.17R WCI  25
PINEDALE       CLOUDY    30  30 100 CALM      30.18R FOG
DUBOIS         LGT RAIN  32  32 100 NW12      30.10R WCI  23
LANDER           N/A     34  26  72 NW8       30.09R WCI  27
RIVERTON       MOCLDY    35  29  78 E6        30.10R WCI  30
CASPER         MOCLDY    34  30  85 NE12      30.10R WCI  25
DOUGLAS        MOCLDY    35  30  82 N14       30.10R WCI  26

$$
WYZ021-027>030-104>119-211200-
SOUTHERN WYOMING

CITY           SKY/WX    TMP DP  RH WIND       PRES   REMARKS
EVANSTON       CLOUDY    38  35  89 W17       30.25S WCI  28
KEMMERER       CLOUDY    34  32  93 W29       30.17F WCI  20
FORT BRIDGER   PTSUNNY   39  38  95 W15G25    30.24S WCI  30
ROCK SPRINGS   FAIR      36  32  85 SW15      30.17R WCI  27
DIXON          CLOUDY    39  26  59 SW13      30.19S WCI  31
RAWLINS        MOCLDY    38  33  82 W21G31    30.12R WCI  28
SARATOGA       CLOUDY    37  32  81 W18G29    30.13R WCI  27
LARAMIE        LGT RAIN  38  32  79 NW22G30   30.07R WCI  27
CHEYENNE       CLOUDY    43  31  62 NW13G23   30.04R
TORRINGTON     MOCLDY    36  26  67 NE13      30.05R WCI  27
PINE BLUFFS    FAIR      45  30  57 MISG      30.03R

$$




USA.gov is the U.S. government's official web portal to all federal, state and local government web resources and services.